Location: Carrières
(48.9495°N, 2.0407°E)
Time: 21:12:43
(UTC+00:00)

Transit 2A - Pass Details

Date: 21 April 2024
Orbit: 594 x 957 km, 66.7° (Epoch: 18 May)

Event Time Altitude Azimuth Distance (km) Brightness Sun altitude
Rises 12:53:04 0° 326° (NNW) 3,170 9.0 51.0°
Reaches altitude 10° 12:55:39 10° 338° (NNW) 2,306 8.3 50.8°
Maximum altitude 13:00:16 29° 39° (NE) 1,466 7.4 50.5°
Drops below altitude 10° 13:05:14 10° 98° (E) 2,510 8.6 50.1°
Sets 13:08:10 0° 109° (ESE) 3,501 9.3 49.8°
